DW7873 Weather Reports


Display with metric or nautical units.
time (UTC)temp
F
wind
direction
speed
MPH
gust
MPH
rain 1hr
in
rain 24hr
in
rain mn
in
humidity
%
barometer
mb
20220626103110 67 227 0.0 0.0 0.00 0.00 0.00 89 1018.4
20220626102553 67 227 0.0 0.0 0.00 0.00 0.00 89 1018.4
20220626102052 67 227 0.0 0.0 0.00 0.00 0.00 89 1018.4
20220626101552 67 227 0.0 0.0 0.00 0.00 0.00 89 1018.4
20220626101051 67 227 0.0 0.0 0.00 0.00 0.00 89 1018.3
20220626100550 67 227 0.0 0.0 0.00 0.00 0.00 89 1018.2
20220626100049 67 227 0.0 0.0 0.00 0.00 0.00 89 1018.2
20220626095550 67 227 0.0 0.0 0.00 0.00 0.00 88 1018.2
20220626095049 67 227 0.0 0.0 0.00 0.00 0.00 88 1018.1
20220626094549 67 227 0.0 0.0 0.00 0.00 0.00 88 1018.1
20220626094048 67 227 0.0 1.0 0.00 0.00 0.00 88 1018.1
20220626093547 67 227 0.0 1.0 0.00 0.00 0.00 88 1018.0
20220626093046 67 227 0.0 0.0 0.00 0.00 0.00 88 1018.0
20220626092546 67 227 0.0 0.0 0.00 0.00 0.00 88 1017.9
20220626092048 67 227 0.0 0.0 0.00 0.00 0.00 87 1017.9
20220626091545 67 227 0.0 0.0 0.00 0.00 0.00 87 1017.9
20220626091045 67 227 0.0 0.0 0.00 0.00 0.00 87 1017.8
20220626090545 67 227 0.0 0.0 0.00 0.00 0.00 87 1017.8
20220626090045 67 227 0.0 0.0 0.00 0.00 0.00 87 1017.8
20220626085544 67 227 0.0 0.0 0.00 0.00 0.00 87 1017.8
20220626085044 67 227 0.0 0.0 0.00 0.00 0.00 87 1017.7
20220626084543 67 227 0.0 0.0 0.00 0.00 0.00 86 1017.7
20220626084045 67 227 0.0 0.0 0.00 0.00 0.00 86 1017.6
20220626083543 67 227 0.0 0.0 0.00 0.00 0.00 86 1017.6
20220626083043 67 227 0.0 0.0 0.00 0.00 0.00 86 1017.5
20220626082541 68 227 0.0 0.0 0.00 0.00 0.00 85 1017.4
20220626082041 68 227 0.0 0.0 0.00 0.00 0.00 85 1017.4
20220626081540 68 227 0.0 0.0 0.00 0.00 0.00 85 1017.4
20220626081039 68 227 0.0 0.0 0.00 0.00 0.00 84 1017.3
20220626080539 68 227 0.0 0.0 0.00 0.00 0.00 84 1017.3
20220626080046 69 227 0.0 0.0 0.00 0.00 0.00 84 1017.3
20220626075538 69 227 0.0 0.0 0.00 0.00 0.00 84 1017.3
20220626075038 69 227 0.0 0.0 0.00 0.00 0.00 83 1017.3
20220626074537 69 227 0.0 0.0 0.00 0.00 0.00 83 1017.3
20220626074037 69 227 0.0 0.0 0.00 0.00 0.00 83 1017.3
20220626073536 69 227 0.0 0.0 0.00 0.00 0.00 83 1017.2
20220626073037 69 227 0.0 0.0 0.00 0.00 0.00 83 1017.2
20220626072536 69 227 0.0 0.0 0.00 0.00 0.00 82 1017.2
20220626072036 69 227 0.0 2.0 0.00 0.00 0.00 82 1017.1
20220626071536 69 227 0.0 2.0 0.00 0.00 0.00 82 1017.1
20220626071036 69 221 0.0 1.0 0.00 0.00 0.00 82 1017.1
20220626070535 69 221 0.0 1.0 0.00 0.00 0.00 82 1017.1
20220626070035 69 225 0.0 1.0 0.00 0.00 0.00 82 1017.2
20220626065534 69 240 0.0 0.0 0.00 0.00 0.00 81 1017.2
20220626065033 69 240 0.0 0.0 0.00 0.00 0.00 81 1017.4
20220626064536 69 240 0.0 0.0 0.00 0.00 0.00 81 1017.4
20220626064036 69 240 0.0 0.0 0.00 0.00 0.00 80 1017.6
20220626063532 69 240 0.0 0.0 0.00 0.00 0.00 80 1017.6
20220626063031 69 240 0.0 0.0 0.00 0.00 0.00 79 1017.6
20220626062534 70 240 0.0 0.0 0.00 0.00 0.00 79 1017.7
20220626062029 70 240 0.0 0.0 0.00 0.00 0.00 79 1017.6
20220626061529 70 227 0.0 0.0 0.00 0.00 0.00 79 1017.7
20220626061032 70 206 0.0 0.0 0.00 0.00 0.00 78 1017.7
20220626060527 70 206 0.0 0.0 0.00 0.00 0.00 78 1017.7
20220626060027 70 206 0.0 0.0 0.00 0.00 0.00 77 1017.7
20220626055528 71 206 0.0 0.0 0.00 0.00 0.00 77 1017.7
20220626055025 71 206 0.0 0.0 0.00 0.00 0.00 76 1017.7
20220626054525 71 206 0.0 0.0 0.00 0.00 0.00 76 1017.7
20220626054023 71 206 0.0 0.0 0.00 0.00 0.00 75 1017.8
20220626053524 71 206 0.0 0.0 0.00 0.00 0.00 75 1017.8
20220626053027 71 206 0.0 0.0 0.00 0.00 0.00 75 1017.8
20220626052522 72 206 0.0 0.0 0.00 0.00 0.00 74 1017.8
20220626052022 72 206 0.0 0.0 0.00 0.00 0.00 73 1017.7
20220626051521 72 206 0.0 0.0 0.00 0.00 0.00 73 1017.8
20220626051022 72 206 0.0 0.0 0.00 0.00 0.00 72 1017.7
20220626050520 72 206 0.0 0.0 0.00 0.00 0.00 72 1017.6
20220626050018 72 206 0.0 0.0 0.00 0.00 0.00 71 1017.6
20220626045521 73 206 0.0 0.0 0.00 0.00 0.00 70 1017.6
20220626045017 73 206 0.0 0.0 0.00 0.00 0.00 70 1017.5
20220626044516 73 206 0.0 1.0 0.00 0.00 0.00 70 1017.5
20220626044015 73 206 0.0 2.0 0.00 0.00 0.00 69 1017.4
20220626043515 73 217 0.0 3.0 0.00 0.00 0.00 69 1017.5
20220626043014 73 214 0.0 3.0 0.00 0.00 0.00 69 1017.4
20220626042514 73 186 0.0 0.0 0.00 0.00 0.00 68 1017.4
20220626042013 73 186 0.0 1.0 0.00 0.00 0.00 68 1017.4
20220626041513 73 186 0.0 1.0 0.00 0.00 0.00 67 1017.4
20220626041013 73 217 0.0 0.0 0.00 0.00 0.00 67 1017.4
20220626040513 74 217 0.0 0.0 0.00 0.00 0.00 66 1017.4
20220626040012 74 217 0.0 1.0 0.00 0.00 0.00 66 1017.3
20220626035511 74 217 0.0 1.0 0.00 0.00 0.00 65 1017.4
20220626035011 74 221 0.0 1.0 0.00 0.00 0.00 65 1017.4
20220626034515 74 221 0.0 1.0 0.00 0.00 0.00 64 1017.4
20220626034010 74 224 0.0 0.0 0.00 0.00 0.00 64 1017.5
20220626033510 74 224 0.0 1.0 0.00 0.00 0.00 64 1017.5
20220626033010 74 227 0.0 2.0 0.00 0.00 0.00 64 1017.5
20220626032510 74 229 0.0 2.0 0.00 0.00 0.00 63 1017.5
20220626032010 74 246 0.0 2.0 0.00 0.00 0.00 63 1017.4
20220626031510 74 246 0.0 2.0 0.00 0.00 0.00 63 1017.5
20220626031010 73 244 0.0 1.0 0.00 0.00 0.00 65 1017.4
20220626030509 73 247 0.0 1.0 0.00 0.00 0.00 64 1017.4
20220626030012 73 247 0.0 1.0 0.00 0.00 0.00 63 1017.5
20220626025509 73 260 0.0 0.0 0.00 0.00 0.00 63 1017.4
20220626025009 73 260 0.0 0.0 0.00 0.00 0.00 64 1017.5
20220626024509 73 260 0.0 0.0 0.00 0.00 0.00 63 1017.4
20220626024008 73 260 0.0 0.0 0.00 0.00 0.00 62 1017.4
20220626023512 74 230 0.0 0.0 0.00 0.00 0.00 61 1017.5
20220626023008 74 230 0.0 0.0 0.00 0.00 0.00 61 1017.5
20220626022508 74 230 0.0 0.0 0.00 0.00 0.00 60 1017.6
20220626022012 74 230 0.0 0.0 0.00 0.00 0.00 59 1017.5
20220626021508 75 230 0.0 0.0 0.00 0.00 0.00 58 1017.5
20220626021008 75 230 0.0 0.0 0.00 0.00 0.00 58 1017.6
20220626020508 75 230 0.0 0.0 0.00 0.00 0.00 57 1017.5
20220626020007 75 230 0.0 0.0 0.00 0.00 0.00 56 1017.6
20220626015508 76 230 0.0 0.0 0.00 0.00 0.00 55 1017.5
20220626015007 76 230 0.0 0.0 0.00 0.00 0.00 55 1017.5
20220626014507 76 230 0.0 0.0 0.00 0.00 0.00 54 1017.4
20220626014007 77 230 0.0 0.0 0.00 0.00 0.00 53 1017.4
20220626013507 77 230 0.0 1.0 0.00 0.00 0.00 52 1017.4
20220626013015 77 230 0.0 1.0 0.00 0.00 0.00 53 1017.3
20220626012508 78 230 0.0 0.0 0.00 0.00 0.00 53 1017.3
20220626012006 78 230 0.0 0.0 0.00 0.00 0.00 52 1017.2
20220626011506 78 230 0.0 0.0 0.00 0.00 0.00 51 1017.1
20220626011006 79 230 0.0 1.0 0.00 0.00 0.00 50 1017.1
20220626010506 79 230 0.0 2.0 0.00 0.00 0.00 50 1017.1
20220626010006 79 230 0.0 2.0 0.00 0.00 0.00 50 1017.0
20220626005506 79 207 0.0 4.0 0.00 0.00 0.00 50 1017.0
20220626005006 80 229 1.0 4.0 0.00 0.00 0.00 49 1016.9
20220626004505 80 210 0.0 4.0 0.00 0.00 0.00 50 1016.9
20220626004006 80 246 1.0 4.0 0.00 0.00 0.00 50 1017.0
20220626003505 80 226 0.0 4.0 0.00 0.00 0.00 51 1016.9
20220626003005 81 226 0.0 5.0 0.00 0.00 0.00 51 1016.8
20220626002504 81 201 1.0 5.0 0.00 0.00 0.00 51 1016.7
20220626002004 81 211 0.0 5.0 0.00 0.00 0.00 51 1016.8
20220626001504 82 209 1.0 5.0 0.00 0.00 0.00 52 1016.8
20220626001004 82 239 1.0 5.0 0.00 0.00 0.00 51 1016.7
20220626000504 82 225 0.0 8.0 0.00 0.00 0.00 51 1016.8
20220626000004 82 209 2.0 4.0 0.00 0.00 0.00 51 1016.7
20220625235503 82 217 0.0 4.0 0.00 0.00 0.00 51 1016.7
20220625235003 83 190 0.0 4.0 0.00 0.00 0.00 50 1016.7
20220625234504 83 206 0.0 5.0 0.00 0.00 0.00 50 1016.7
20220625234006 83 268 0.0 5.0 0.00 0.00 0.00 51 1016.7
20220625233502 84 203 0.0 3.0 0.00 0.00 0.00 51 1016.7
20220625233006 84 216 0.0 5.0 0.00 0.00 0.00 51 1016.7
20220625232501 84 190 1.0 5.0 0.00 0.00 0.00 51 1016.7
20220625232002 84 198 0.0 3.0 0.00 0.00 0.00 52 1016.7
20220625231504 84 181 0.0 2.0 0.00 0.00 0.00 51 1016.8
20220625231002 85 203 0.0 2.0 0.00 0.00 0.00 50 1016.7
20220625230502 85 115 0.0 1.0 0.00 0.00 0.00 51 1016.7
20220625230108 85 128 0.0 2.0 0.00 0.00 0.00 51 1016.6
20220625225604 85 80 0.0 2.0 0.00 0.00 0.00 49 1016.6
20220625225100 85 91 0.0 2.0 0.00 0.00 0.00 49 1016.5
20220625224607 86 250 0.0 3.0 0.00 0.00 0.00 50 1016.5
20220625224100 86 96 0.0 3.0 0.00 0.00 0.00 49 1016.5
20220625223600 86 76 0.0 5.0 0.00 0.00 0.00 50 1016.4
20220625223105 86 61 1.0 6.0 0.00 0.00 0.00 49 1016.5
20220625222603 87 74 2.0 6.0 0.00 0.00 0.00 47 1016.5
20220625222103 88 49 0.0 3.0 0.00 0.00 0.00 48 1016.4
20220625221559 88 200 0.0 4.0 0.00 0.00 0.00 46 1016.5
20220625221159 88 236 1.0 4.0 0.00 0.00 0.00 45 1016.5
20220625220558 88 217 1.0 3.0 0.00 0.00 0.00 46 1016.5
20220625220059 88 192 0.0 3.0 0.00 0.00 0.00 44 1016.5
20220625215559 88 246 0.0 3.0 0.00 0.00 0.00 46 1016.5
20220625215100 88 198 0.0 2.0 0.00 0.00 0.00 45 1016.5
20220625214558 88 182 0.0 2.0 0.00 0.00 0.00 44 1016.6
20220625214058 88 360 0.0 5.0 0.00 0.00 0.00 44 1016.5
20220625213557 88 200 1.0 5.0 0.00 0.00 0.00 44 1016.4
20220625213100 88 208 1.0 3.0 0.00 0.00 0.00 43 1016.5
20220625212558 87 224 0.0 2.0 0.00 0.00 0.00 47 1016.5
20220625212059 87 20 0.0 2.0 0.00 0.00 0.00 46 1016.5
20220625211600 87 53 0.0 2.0 0.00 0.00 0.00 48 1016.5
20220625211057 87 60 0.0 2.0 0.00 0.00 0.00 48 1016.5
20220625210557 87 58 0.0 1.0 0.00 0.00 0.00 48 1016.5
20220625210108 87 58 0.0 2.0 0.00 0.00 0.00 47 1016.4
20220625205556 87 58 1.0 3.0 0.00 0.00 0.00 47 1016.4
20220625205055 87 29 1.0 5.0 0.00 0.00 0.00 45 1016.5
20220625204612 87 355 3.0 5.0 0.00 0.00 0.00 47 1016.5
20220625204056 87 345 1.0 3.0 0.00 0.00 0.00 47 1016.5
20220625203555 87 297 0.0 4.0 0.00 0.00 0.00 47 1016.5
20220625203055 87 194 2.0 4.0 0.00 0.00 0.00 46 1016.5
20220625202555 87 187 1.0 3.0 0.00 0.00 0.00 46 1016.3
20220625202055 87 250 0.0 4.0 0.00 0.00 0.00 46 1016.3
20220625201555 87 198 0.0 4.0 0.00 0.00 0.00 46 1016.2
20220625201058 87 212 0.0 3.0 0.00 0.00 0.00 46 1016.2
20220625200557 87 198 1.0 3.0 0.00 0.00 0.00 46 1016.2
20220625200054 87 14 0.0 3.0 0.00 0.00 0.00 46 1016.2
20220625195555 87 32 0.0 5.0 0.00 0.00 0.00 45 1016.2
20220625195053 87 42 2.0 5.0 0.00 0.00 0.00 45 1016.3
20220625194553 87 98 0.0 6.0 0.00 0.00 0.00 47 1016.4
20220625194053 88 59 3.0 6.0 0.00 0.00 0.00 46 1016.5
20220625193553 88 172 0.0 4.0 0.00 0.00 0.00 46 1016.5
20220625193053 88 47 0.0 4.0 0.00 0.00 0.00 45 1016.6
20220625192552 88 18 0.0 6.0 0.00 0.00 0.00 45 1016.6
20220625192052 88 23 1.0 6.0 0.00 0.00 0.00 43 1016.6
20220625191553 88 71 0.0 3.0 0.00 0.00 0.00 47 1016.6
20220625191052 88 71 1.0 3.0 0.00 0.00 0.00 45 1016.7
20220625190555 89 202 0.0 4.0 0.00 0.00 0.00 44 1016.8
20220625190055 89 193 2.0 4.0 0.00 0.00 0.00 44 1016.8
20220625185552 89 57 2.0 4.0 0.00 0.00 0.00 45 1016.9
20220625185051 89 89 2.0 4.0 0.00 0.00 0.00 43 1016.9
20220625184603 89 42 0.0 4.0 0.00 0.00 0.00 44 1017.0
20220625184050 89 38 1.0 4.0 0.00 0.00 0.00 47 1017.0
20220625183550 88 360 0.0 4.0 0.00 0.00 0.00 47 1017.0
20220625183049 88 196 0.0 3.0 0.00 0.00 0.00 45 1017.1
20220625182549 88 55 0.0 4.0 0.00 0.00 0.00 46 1017.1
20220625182050 88 69 1.0 4.0 0.00 0.00 0.00 46 1017.1
20220625181554 89 222 0.0 3.0 0.00 0.00 0.00 47 1017.2
20220625181048 88 329 1.0 5.0 0.00 0.00 0.00 49 1017.2
20220625180548 88 68 3.0 5.0 0.00 0.00 0.00 46 1017.3
20220625180100 88 240 0.0 2.0 0.00 0.00 0.00 47 1017.3
20220625175545 87 232 0.0 5.0 0.00 0.00 0.00 49 1017.4
20220625175044 87 288 0.0 5.0 0.00 0.00 0.00 45 1017.5
20220625174544 87 215 1.0 5.0 0.00 0.00 0.00 45 1017.4
20220625174046 87 53 0.0 5.0 0.00 0.00 0.00 47 1017.5
20220625173542 87 44 2.0 5.0 0.00 0.00 0.00 46 1017.4
20220625173042 86 271 1.0 4.0 0.00 0.00 0.00 46 1017.4
20220625172544 86 348 1.0 3.0 0.00 0.00 0.00 49 1017.4
20220625172040 85 269 0.0 5.0 0.00 0.00 0.00 51 1017.4
20220625171539 85 169 1.0 5.0 0.00 0.00 0.00 50 1017.5
20220625171039 86 59 2.0 5.0 0.00 0.00 0.00 47 1017.5
20220625170538 86 78 2.0 5.0 0.00 0.00 0.00 47 1017.4
20220625170038 85 194 0.0 2.0 0.00 0.00 0.00 51 1017.4
20220625165536 85 57 0.0 4.0 0.00 0.00 0.00 48 1017.5
20220625165035 85 86 1.0 4.0 0.00 0.00 0.00 49 1017.6
20220625164535 85 69 0.0 4.0 0.00 0.00 0.00 49 1017.5
20220625164034 85 39 0.0 8.0 0.00 0.00 0.00 49 1017.6
20220625163537 85 74 2.0 8.0 0.00 0.00 0.00 47 1017.7
20220625163035 85 137 1.0 6.0 0.00 0.00 0.00 49 1017.7
20220625162532 85 351 1.0 3.0 0.00 0.00 0.00 50 1017.6
20220625162030 84 295 0.0 3.0 0.00 0.00 0.00 52 1017.5
20220625161528 84 318 0.0 4.0 0.00 0.00 0.00 53 1017.6
20220625161028 83 215 1.0 4.0 0.00 0.00 0.00 50 1017.7
20220625160528 83 216 0.0 5.0 0.00 0.00 0.00 52 1017.7
20220625160028 83 65 2.0 5.0 0.00 0.00 0.00 51 1017.7
20220625155531 83 66 1.0 4.0 0.00 0.00 0.00 51 1017.7
20220625155026 83 311 1.0 4.0 0.00 0.00 0.00 50 1017.7
20220625154528 83 65 0.0 3.0 0.00 0.00 0.00 51 1017.6
20220625154024 82 304 0.0 3.0 0.00 0.00 0.00 51 1017.6
20220625153525 82 186 1.0 5.0 0.00 0.00 0.00 51 1017.6
20220625153024 82 198 0.0 5.0 0.00 0.00 0.00 51 1017.5
20220625152523 82 180 0.0 3.0 0.00 0.00 0.00 51 1017.6
20220625152023 82 327 0.0 3.0 0.00 0.00 0.00 53 1017.4
20220625151524 82 311 1.0 4.0 0.00 0.00 0.00 54 1017.4
20220625151021 82 14 0.0 4.0 0.00 0.00 0.00 54 1017.4
20220625150521 81 188 0.0 4.0 0.00 0.00 0.00 55 1017.4
20220625150021 81 296 0.0 4.0 0.00 0.00 0.00 54 1017.4
20220625145523 81 208 0.0 3.0 0.00 0.00 0.00 55 1017.3
20220625145019 81 292 0.0 3.0 0.00 0.00 0.00 55 1017.3
20220625144520 80 316 0.0 5.0 0.00 0.00 0.00 57 1017.3
20220625144022 80 61 2.0 5.0 0.00 0.00 0.00 55 1017.4
20220625143518 80 82 0.0 2.0 0.00 0.00 0.00 56 1017.5
20220625143033 80 310 0.0 3.0 0.00 0.00 0.00 56 1017.5
20220625142516 80 308 0.0 3.0 0.00 0.00 0.00 57 1017.4
20220625142015 80 319 0.0 3.0 0.00 0.00 0.00 56 1017.5
20220625141514 80 203 0.0 4.0 0.00 0.00 0.00 58 1017.5
20220625141014 79 317 1.0 4.0 0.00 0.00 0.00 58 1017.5
20220625140514 79 28 0.0 3.0 0.00 0.00 0.00 57 1017.4
20220625140012 79 13 1.0 4.0 0.00 0.00 0.00 57 1017.4
20220625135511 79 36 2.0 4.0 0.00 0.00 0.00 59 1017.3
20220625135009 78 278 0.0 2.0 0.00 0.00 0.00 60 1017.3
20220625134509 78 235 0.0 3.0 0.00 0.00 0.00 61 1017.4
20220625134011 78 83 0.0 3.0 0.00 0.00 0.00 62 1017.3
20220625133506 78 355 1.0 3.0 0.00 0.00 0.00 62 1017.3
20220625133005 77 71 0.0 3.0 0.00 0.00 0.00 65 1017.4
20220625132508 77 38 1.0 3.0 0.00 0.00 0.00 64 1017.4
20220625132003 76 345 0.0 2.0 0.00 0.00 0.00 66 1017.3
20220625131503 76 298 0.0 2.0 0.00 0.00 0.00 66 1017.3
20220625131001 76 349 0.0 2.0 0.00 0.00 0.00 67 1017.4
20220625130602 75 325 0.0 2.0 0.00 0.00 0.00 67 1017.4
20220625130105 75 22 0.0 2.0 0.00 0.00 0.00 69 1017.4
20220625125558 74 56 1.0 4.0 0.00 0.00 0.00 71 1017.5
20220625125056 74 49 2.0 4.0 0.00 0.00 0.00 69 1017.5
20220625124555 74 41 0.0 3.0 0.00 0.00 0.00 71 1017.6
20220625124053 73 52 0.0 2.0 0.00 0.00 0.00 73 1017.6
20220625123552 72 58 0.0 3.0 0.00 0.00 0.00 74 1017.7
20220625123051 72 58 0.0 3.0 0.00 0.00 0.00 73 1017.6
20220625122550 72 133 0.0 2.0 0.00 0.00 0.00 74 1017.6
20220625122050 71 55 0.0 2.0 0.00 0.00 0.00 76 1017.6
20220625121549 71 216 0.0 2.0 0.00 0.00 0.00 75 1017.6
20220625121051 71 236 0.0 2.0 0.00 0.00 0.00 74 1017.5
20220625120548 71 294 0.0 2.0 0.00 0.00 0.00 74 1017.6
20220625120103 70 315 0.0 2.0 0.00 0.00 0.00 76 1017.6
20220625115546 70 240 0.0 2.0 0.00 0.00 0.00 75 1017.7
20220625115045 70 248 0.0 2.0 0.00 0.00 0.00 75 1017.7
20220625114546 70 342 0.0 3.0 0.00 0.00 0.00 77 1017.6
20220625114044 69 317 1.0 3.0 0.00 0.00 0.00 76 1017.5
20220625113542 69 292 0.0 2.0 0.00 0.00 0.00 77 1017.5
20220625113041 69 315 0.0 2.0 0.00 0.00 0.00 77 1017.6
20220625112540 68 313 0.0 2.0 0.00 0.00 0.00 78 1017.6
20220625112039 68 279 0.0 2.0 0.00 0.00 0.00 77 1017.6
20220625111544 68 300 0.0 2.0 0.00 0.00 0.00 78 1017.6
20220625111040 68 300 0.0 2.0 0.00 0.00 0.00 78 1017.6
20220625110537 68 300 0.0 2.0 0.00 0.00 0.00 79 1017.5
20220625110039 68 321 0.0 2.0 0.00 0.00 0.00 80 1017.5
20220625105535 68 332 0.0 2.0 0.00 0.00 0.00 81 1017.5
20220625105036 67 335 0.0 1.0 0.00 0.00 0.00 83 1017.4
20220625104534 66 335 0.0 1.0 0.00 0.00 0.00 85 1017.3
20220625104032 66 344 0.0 1.0 0.00 0.00 0.00 87 1017.2
20220625103533 65 344 0.0 1.0 0.00 0.00 0.00 90 1017.2